| time (UTC) | temp C | wind direction | speed KPH | gust KPH | rain 1hr cm | rain 24hr cm | rain mn cm | humidity % | barometer mb |
| 20260503195454 | 19 | 132 | 3.2 | 24.1 | 0.00 | 0.00 | 0.00 | 31 | 1005.5 |
| 20260503194952 | 19 | 154 | 3.2 | 24.1 | 0.00 | 0.00 | 0.00 | 31 | 1005.7 |
| 20260503194453 | 19 | 110 | 3.2 | 14.5 | 0.00 | 0.00 | 0.00 | 30 | 1005.9 |
| 20260503193453 | 19 | 74 | 4.8 | 17.7 | 0.00 | 0.00 | 0.00 | 30 | 1005.9 |
| 20260503192953 | 18 | 180 | 1.6 | 11.3 | 0.00 | 0.00 | 0.00 | 31 | 1006.1 |
| 20260503192453 | 19 | 139 | 6.4 | 12.9 | 0.00 | 0.00 | 0.00 | 32 | 1006.0 |
| 20260503191951 | 18 | 170 | 4.8 | 16.1 | 0.00 | 0.00 | 0.00 | 32 | 1006.4 |
| 20260503190448 | 18 | 134 | 8.0 | 24.1 | 0.00 | 0.00 | 0.00 | 31 | 1006.7 |
| 20260503185950 | 17 | 166 | 3.2 | 16.1 | 0.00 | 0.00 | 0.00 | 33 | 1007.0 |
| 20260503185437 | 17 | 108 | 9.7 | 16.1 | 0.00 | 0.00 | 0.00 | 31 | 1006.7 |
| 20260503184939 | 17 | 157 | 6.4 | 16.1 | 0.00 | 0.00 | 0.00 | 32 | 1006.9 |
| 20260503183932 | 18 | 168 | 6.4 | 16.1 | 0.00 | 0.00 | 0.00 | 31 | 1007.1 |
| 20260503183432 | 17 | 197 | 6.4 | 12.9 | 0.00 | 0.00 | 0.00 | 31 | 1007.2 |
| 20260503182931 | 17 | 76 | 4.8 | 12.9 | 0.00 | 0.00 | 0.00 | 33 | 1007.3 |
| 20260503182434 | 17 | 191 | 6.4 | 20.9 | 0.00 | 0.00 | 0.00 | 32 | 1007.4 |
| 20260503181933 | 17 | 139 | 3.2 | 20.9 | 0.00 | 0.00 | 0.00 | 35 | 1007.4 |
| 20260503181431 | 17 | 130 | 3.2 | 12.9 | 0.00 | 0.00 | 0.00 | 34 | 1007.4 |
| 20260503180931 | 17 | 85 | 3.2 | 19.3 | 0.00 | 0.00 | 0.00 | 34 | 1007.5 |
| 20260503180433 | 16 | 159 | 4.8 | 19.3 | 0.00 | 0.00 | 0.00 | 34 | 1007.8 |
| 20260503175932 | 17 | 150 | 4.8 | 12.9 | 0.00 | 0.00 | 0.00 | 35 | 1007.9 |
| 20260503175432 | 16 | 132 | 3.2 | 12.9 | 0.00 | 0.00 | 0.00 | 33 | 1007.8 |
| 20260503174931 | 16 | 135 | 4.8 | 12.9 | 0.00 | 0.00 | 0.00 | 34 | 1007.7 |
| 20260503174432 | 16 | 110 | 3.2 | 9.7 | 0.00 | 0.00 | 0.00 | 34 | 1007.9 |
| 20260503173932 | 16 | 132 | 3.2 | 16.1 | 0.00 | 0.00 | 0.00 | 34 | 1008.4 |
| 20260503173432 | 15 | 85 | 3.2 | 17.7 | 0.00 | 0.00 | 0.00 | 36 | 1008.3 |
| 20260503172933 | 16 | 164 | 8.0 | 17.7 | 0.00 | 0.00 | 0.00 | 33 | 1008.2 |
| 20260503172432 | 16 | 160 | 4.8 | 12.9 | 0.00 | 0.00 | 0.00 | 36 | 1008.3 |
| 20260503171932 | 16 | 117 | 6.4 | 12.9 | 0.00 | 0.00 | 0.00 | 34 | 1008.2 |
| 20260503171430 | 16 | 135 | 4.8 | 16.1 | 0.00 | 0.00 | 0.00 | 35 | 1008.5 |
| 20260503170929 | 15 | 112 | 11.3 | 16.1 | 0.00 | 0.00 | 0.00 | 36 | 1008.5 |
| 20260503170430 | 15 | 341 | 4.8 | 11.3 | 0.00 | 0.00 | 0.00 | 37 | 1008.5 |
| 20260503150901 | 12 | 210 | 4.8 | 12.9 | 0.00 | 0.00 | 0.00 | 37 | 1009.5 |
| 20260503150403 | 12 | 148 | 3.2 | 12.9 | 0.00 | 0.00 | 0.00 | 38 | 1009.4 |
| 20260503130902 | 8 | 173 | 1.6 | 9.7 | 0.00 | 0.00 | 0.00 | 57 | 1009.2 |
| 20260503130400 | 8 | 126 | 1.6 | 9.7 | 0.00 | 0.00 | 0.00 | 58 | 1009.2 |
| 20260503090305 | 5 | 111 | 0.0 | 3.2 | 0.00 | 0.00 | 0.00 | 89 | 1007.8 |
| 20260503081216 | 3 | 114 | 0.0 | 0.0 | 0.00 | 0.00 | 0.00 | 96 | 1007.8 |
| 20260503080203 | 3 | 114 | 0.0 | 1.6 | 0.00 | 0.00 | 0.00 | 95 | 1007.6 |
| 20260503072705 | 3 | 69 | 0.0 | 3.2 | 0.00 | 0.00 | 0.00 | 94 | 1007.5 |
| 20260503072204 | 3 | 131 | 0.0 | 3.2 | 0.00 | 0.00 | 0.00 | 94 | 1007.7 |
| 20260503071704 | 3 | 105 | 0.0 | 3.2 | 0.00 | 0.00 | 0.00 | 94 | 1007.5 |
| 20260503071205 | 4 | 157 | 0.0 | 0.0 | 0.00 | 0.00 | 0.00 | 94 | 1007.5 |
| 20260503070703 | 3 | 157 | 0.0 | 0.0 | 0.00 | 0.00 | 0.00 | 94 | 1007.6 |
| 20260503070200 | 3 | 157 | 0.0 | 1.6 | 0.00 | 0.00 | 0.00 | 93 | 1007.5 |
| 20260503060204 | 5 | 157 | 0.0 | 0.0 | 0.00 | 0.00 | 0.00 | 88 | 1007.9 |
| 20260503054703 | 6 | 157 | 0.0 | 1.6 | 0.00 | 0.00 | 0.00 | 85 | 1007.9 |
| 20260503054205 | 6 | 157 | 0.0 | 1.6 | 0.00 | 0.00 | 0.00 | 84 | 1007.9 |
| 20260503053204 | 6 | 74 | 0.0 | 1.6 | 0.00 | 0.00 | 0.00 | 83 | 1007.6 |
| 20260503052200 | 6 | 151 | 0.0 | 0.0 | 0.00 | 0.00 | 0.00 | 81 | 1007.5 |
| 20260503051201 | 7 | 151 | 0.0 | 0.0 | 0.00 | 0.00 | 0.00 | 79 | 1007.6 |
| 20260503050702 | 7 | 151 | 0.0 | 1.6 | 0.00 | 0.00 | 0.00 | 79 | 1007.5 |
| 20260503050203 | 7 | 151 | 0.0 | 1.6 | 0.00 | 0.00 | 0.00 | 78 | 1007.9 |
| 20260503045701 | 8 | 151 | 0.0 | 1.6 | 0.00 | 0.00 | 0.00 | 77 | 1007.7 |
| 20260503045200 | 8 | 40 | 0.0 | 3.2 | 0.00 | 0.00 | 0.00 | 76 | 1007.5 |
| 20260503044705 | 9 | 353 | 0.0 | 4.8 | 0.00 | 0.00 | 0.00 | 75 | 1007.6 |
| 20260503044205 | 9 | 289 | 0.0 | 4.8 | 0.00 | 0.00 | 0.00 | 75 | 1007.8 |
| 20260503043732 | 8 | 279 | 0.0 | 0.0 | 0.00 | 0.00 | 0.00 | 77 | 1007.8 |
| 20260503043204 | 8 | 166 | 0.0 | 1.6 | 0.00 | 0.00 | 0.00 | 76 | 1007.8 |
| 20260503042203 | 9 | 120 | 0.0 | 4.8 | 0.00 | 0.00 | 0.00 | 73 | 1007.5 |
| 20260503041200 | 9 | 246 | 0.0 | 3.2 | 0.00 | 0.00 | 0.00 | 71 | 1007.4 |
| 20260503040720 | 9 | 99 | 0.0 | 1.6 | 0.00 | 0.00 | 0.00 | 71 | 1007.5 |
| 20260503040201 | 9 | 99 | 0.0 | 1.6 | 0.00 | 0.00 | 0.00 | 70 | 1007.6 |
| 20260503035701 | 10 | 279 | 0.0 | 0.0 | 0.00 | 0.00 | 0.00 | 68 | 1007.9 |
| 20260503035200 | 10 | 279 | 0.0 | 0.0 | 0.00 | 0.00 | 0.00 | 67 | 1007.7 |
| 20260503034704 | 10 | 279 | 0.0 | 0.0 | 0.00 | 0.00 | 0.00 | 65 | 1007.7 |
| 20260503034205 | 10 | 279 | 0.0 | 0.0 | 0.00 | 0.00 | 0.00 | 65 | 1007.6 |
| 20260503033710 | 10 | 180 | 0.0 | 1.6 | 0.00 | 0.00 | 0.00 | 66 | 1007.7 |
| 20260503033205 | 10 | 180 | 0.0 | 1.6 | 0.00 | 0.00 | 0.00 | 66 | 1007.6 |
| 20260503032705 | 10 | 154 | 0.0 | 1.6 | 0.00 | 0.00 | 0.00 | 66 | 1008.0 |
| 20260503032205 | 11 | 180 | 0.0 | 0.0 | 0.00 | 0.00 | 0.00 | 62 | 1007.8 |
| 20260503031703 | 11 | 180 | 0.0 | 1.6 | 0.00 | 0.00 | 0.00 | 60 | 1007.6 |
| 20260503031204 | 12 | 180 | 0.0 | 3.2 | 0.00 | 0.00 | 0.00 | 58 | 1007.6 |
| 20260503030206 | 12 | 7 | 0.0 | 9.7 | 0.00 | 0.00 | 0.00 | 54 | 1007.4 |
| 20260503025703 | 12 | 276 | 1.6 | 9.7 | 0.00 | 0.00 | 0.00 | 56 | 1007.3 |
| 20260503025204 | 11 | 336 | 0.0 | 8.0 | 0.00 | 0.00 | 0.00 | 59 | 1007.4 |
| 20260503024705 | 12 | 286 | 0.0 | 6.4 | 0.00 | 0.00 | 0.00 | 58 | 1007.3 |
| 20260503024206 | 12 | 327 | 3.2 | 4.8 | 0.00 | 0.00 | 0.00 | 58 | 1007.7 |
| 20260503023658 | 11 | 81 | 0.0 | 4.8 | 0.00 | 0.00 | 0.00 | 58 | 1007.6 |
| 20260503023156 | 11 | 0 | 0.0 | 3.2 | 0.00 | 0.00 | 0.00 | 59 | 1007.5 |
| 20260503022653 | 12 | 7 | 0.0 | 3.2 | 0.00 | 0.00 | 0.00 | 59 | 1007.3 |
| 20260503022149 | 12 | 315 | 0.0 | 3.2 | 0.00 | 0.00 | 0.00 | 57 | 1007.4 |
| 20260503021645 | 12 | 340 | 0.0 | 3.2 | 0.00 | 0.00 | 0.00 | 57 | 1007.1 |
| 20260503021144 | 12 | 0 | 0.0 | 3.2 | 0.00 | 0.00 | 0.00 | 56 | 1007.5 |
| 20260503020644 | 12 | 0 | 0.0 | 3.2 | 0.00 | 0.00 | 0.00 | 58 | 1007.6 |
| 20260503020138 | 12 | 300 | 0.0 | 3.2 | 0.00 | 0.00 | 0.00 | 58 | 1007.3 |
| 20260503015632 | 12 | 307 | 0.0 | 3.2 | 0.00 | 0.00 | 0.00 | 58 | 1007.4 |
| 20260503015133 | 12 | 0 | 0.0 | 3.2 | 0.00 | 0.00 | 0.00 | 57 | 1007.3 |
| 20260503014630 | 12 | 0 | 0.0 | 0.0 | 0.00 | 0.00 | 0.00 | 56 | 1007.5 |
| 20260503014129 | 12 | 0 | 0.0 | 1.6 | 0.00 | 0.00 | 0.00 | 57 | 1007.3 |
| 20260503013629 | 12 | 0 | 0.0 | 1.6 | 0.00 | 0.00 | 0.00 | 56 | 1007.4 |
| 20260503012628 | 13 | 254 | 0.0 | 1.6 | 0.00 | 0.00 | 0.00 | 55 | 1007.3 |
| 20260503012130 | 13 | 0 | 0.0 | 3.2 | 0.00 | 0.00 | 0.00 | 55 | 1007.6 |
| 20260503011630 | 13 | 0 | 0.0 | 3.2 | 0.00 | 0.00 | 0.00 | 54 | 1007.3 |
| 20260503011129 | 13 | 15 | 0.0 | 3.2 | 0.00 | 0.00 | 0.00 | 54 | 1007.2 |
| 20260503010630 | 13 | 352 | 0.0 | 3.2 | 0.00 | 0.00 | 0.00 | 55 | 1007.3 |
| 20260503005629 | 13 | 306 | 1.6 | 3.2 | 0.00 | 0.00 | 0.00 | 53 | 1007.3 |
| 20260503005128 | 13 | 350 | 0.0 | 3.2 | 0.00 | 0.00 | 0.00 | 53 | 1007.4 |
| 20260503004628 | 13 | 340 | 0.0 | 4.8 | 0.00 | 0.00 | 0.00 | 53 | 1007.4 |
| 20260503004129 | 13 | 286 | 1.6 | 4.8 | 0.00 | 0.00 | 0.00 | 53 | 1007.7 |
| 20260503003630 | 14 | 254 | 0.0 | 4.8 | 0.00 | 0.00 | 0.00 | 53 | 1007.6 |
| 20260503003129 | 14 | 323 | 0.0 | 6.4 | 0.00 | 0.00 | 0.00 | 52 | 1007.5 |
| 20260503002629 | 14 | 325 | 0.0 | 6.4 | 0.00 | 0.00 | 0.00 | 52 | 1007.6 |
| 20260503002129 | 14 | 340 | 0.0 | 6.4 | 0.00 | 0.00 | 0.00 | 52 | 1007.4 |
| 20260503000632 | 14 | 283 | 0.0 | 6.4 | 0.00 | 0.00 | 0.00 | 53 | 1007.9 |
| 20260503000132 | 14 | 270 | 0.0 | 4.8 | 0.00 | 0.00 | 0.00 | 53 | 1008.0 |
| 20260502235633 | 14 | 279 | 0.0 | 4.8 | 0.00 | 0.00 | 0.00 | 54 | 1007.8 |
| 20260502235133 | 14 | 341 | 0.0 | 4.8 | 0.00 | 0.00 | 0.00 | 53 | 1008.0 |
| 20260502234631 | 14 | 339 | 3.2 | 4.8 | 0.00 | 0.00 | 0.00 | 52 | 1008.0 |
| 20260502234131 | 14 | 345 | 1.6 | 3.2 | 0.00 | 0.00 | 0.00 | 53 | 1008.1 |
| 20260502233129 | 14 | 345 | 1.6 | 6.4 | 0.00 | 0.00 | 0.00 | 52 | 1008.4 |
| 20260502232629 | 14 | 292 | 3.2 | 6.4 | 0.00 | 0.00 | 0.00 | 50 | 1008.4 |
| 20260502231630 | 14 | 277 | 1.6 | 6.4 | 0.00 | 0.00 | 0.00 | 56 | 1008.8 |
| 20260502230630 | 14 | 330 | 3.2 | 6.4 | 0.00 | 0.00 | 0.00 | 56 | 1008.9 |
| 20260502230130 | 14 | 249 | 0.0 | 4.8 | 0.00 | 0.00 | 0.00 | 57 | 1008.8 |
| 20260502225629 | 14 | 128 | 0.0 | 3.2 | 0.00 | 0.00 | 0.00 | 57 | 1009.1 |
| 20260502225128 | 14 | 294 | 0.0 | 3.2 | 0.00 | 0.00 | 0.00 | 51 | 1008.9 |
| 20260502224630 | 14 | 294 | 0.0 | 3.2 | 0.00 | 0.00 | 0.00 | 50 | 1008.8 |
| 20260502224131 | 14 | 345 | 1.6 | 1.6 | 0.00 | 0.00 | 0.00 | 49 | 1009.0 |
| 20260502223631 | 15 | 90 | 0.0 | 3.2 | 0.00 | 0.00 | 0.00 | 49 | 1009.0 |
| 20260502222628 | 15 | 306 | 0.0 | 3.2 | 0.00 | 0.00 | 0.00 | 48 | 1008.6 |
| 20260502222117 | 15 | 29 | 1.6 | 4.8 | 0.00 | 0.00 | 0.00 | 48 | 1008.8 |
| 20260502221612 | 15 | 0 | 0.0 | 4.8 | 0.00 | 0.00 | 0.00 | 46 | 1009.1 |
| 20260502221101 | 15 | 157 | 0.0 | 3.2 | 0.00 | 0.00 | 0.00 | 49 | 1009.3 |
| 20260502220603 | 15 | 81 | 0.0 | 4.8 | 0.00 | 0.00 | 0.00 | 48 | 1009.2 |
| 20260502215601 | 15 | 82 | 0.0 | 4.8 | 0.00 | 0.00 | 0.00 | 46 | 1008.9 |
| 20260502215100 | 15 | 8 | 0.0 | 9.7 | 0.00 | 0.00 | 0.00 | 48 | 1009.1 |
| 20260502214603 | 15 | 107 | 4.8 | 9.7 | 0.00 | 0.00 | 0.00 | 47 | 1009.0 |
| 20260502214100 | 15 | 72 | 3.2 | 4.8 | 0.00 | 0.00 | 0.00 | 47 | 1009.2 |
| 20260502213603 | 15 | 0 | 1.6 | 8.0 | 0.00 | 0.00 | 0.00 | 47 | 1009.3 |
| 20260502212604 | 15 | 172 | 0.0 | 17.7 | 0.00 | 0.00 | 0.00 | 47 | 1009.8 |
| 20260502212105 | 15 | 90 | 4.8 | 20.9 | 0.00 | 0.00 | 0.00 | 46 | 1010.0 |
| 20260502211605 | 15 | 162 | 6.4 | 20.9 | 0.00 | 0.00 | 0.00 | 47 | 1009.7 |
| 20260502211103 | 16 | 19 | 3.2 | 14.5 | 0.00 | 0.00 | 0.00 | 40 | 1009.8 |
| 20260502210604 | 16 | 90 | 4.8 | 22.5 | 0.00 | 0.00 | 0.00 | 42 | 1009.5 |
| 20260502205605 | 16 | 108 | 16.1 | 22.5 | 0.00 | 0.00 | 0.00 | 41 | 1010.0 |
| 20260502205105 | 17 | 107 | 3.2 | 17.7 | 0.00 | 0.00 | 0.00 | 39 | 1009.6 |
| 20260502204601 | 17 | 111 | 4.8 | 22.5 | 0.00 | 0.00 | 0.00 | 39 | 1009.6 |
| 20260502204100 | 17 | 159 | 4.8 | 22.5 | 0.00 | 0.00 | 0.00 | 38 | 1009.7 |
| 20260502203602 | 17 | 117 | 22.5 | 22.5 | 0.00 | 0.00 | 0.00 | 37 | 1009.9 |
| 20260502202600 | 17 | 119 | 3.2 | 14.5 | 0.00 | 0.00 | 0.00 | 36 | 1009.8 |
| 20260502202103 | 17 | 151 | 6.4 | 9.7 | 0.00 | 0.00 | 0.00 | 37 | 1010.2 |
| 20260502201601 | 17 | 90 | 8.0 | 11.3 | 0.00 | 0.00 | 0.00 | 36 | 1009.9 |
| 20260502201102 | 17 | 150 | 4.8 | 12.9 | 0.00 | 0.00 | 0.00 | 37 | 1010.2 |
| 20260502200604 | 17 | 126 | 4.8 | 12.9 | 0.00 | 0.00 | 0.00 | 36 | 1010.1 |